Regional Weather Roundup
Issued by NWS Kansas City/Pleasant Hill, MO

Home | Current Version | Previous Version | Graphics & Text | Print | Product List | Glossary Off
Versions: 1 2 3 4 5 6 7 8 9 10 11 12 13 14 15 16 17 18 19 20 21 22 23 24 25 26 27 28 29 30 31 32 33 34 35 36 37 38 39 40 41 42 43 44 45 46 47 48 49 50

000
ASUS43 KEAX 020410
RWREAX

WEATHER ROUNDUP FOR EASTERN KANSAS AND NORTHWEST MISSOURI
NATIONAL WEATHER SERVICE KANSAS CITY/PLEASANT HILL MO
1100 PM CDT WED APR 01 2015

KSZ040-057-103>105-MOZ028-029-037-043-020500-
...KANSAS CITY METROPOLITAN AREA...

CITY           SKY/WX    TMP DP  RH WIND       PRES   REMARKS
K.C. INTL      MOCLDY    61  58  90 S16       29.66F
K.C. DOWNTOWN  CLOUDY    64  59  83 S8G18     29.68F
LEES SUMMIT    MOCLDY    61  58  90 S16G22    29.69F
OLATHE - IXD   PTCLDY    61  59  93 S18       29.68F
OLATHE - OJC   CLOUDY    62  60  93 S20       29.68F
LAWRENCE       PTCLDY    60  57  89 SE10      29.67S

$$

MOZ001>008-011>017-020>025-030>033-038>040-044>046-053-054-020500-
...NORTHERN AND CENTRAL MISSOURI...

CITY           SKY/WX    TMP DP  RH WIND       PRES   REMARKS
ST. JOSEPH     CLEAR     62  56  80 S14       29.65S
MOSBY          CLOUDY    61  55  82 SE7       29.68F
WARRENSBURG    CLEAR     59  55  88 SE15G23   29.71F
WHITEMAN AFB   CLEAR     59  57  94 S16       29.72F
CLINTON        CLEAR     61  61 100 S12       29.74F
SEDALIA        CLEAR     58  55  90 SE13      29.74F
WARSAW         NOT AVBL
MARSHALL       CLEAR     61  59  94 SE15      29.73F
CHILLICOTHE      N/A     60  55  83 S12       29.71F
MOBERLY        PTCLDY    59  54  82 SE10      29.75F
KIRKSVILLE     PTCLDY    58  54  86 S12       29.74F

$$

MOZ041-047>049-056>058-063>065-088>090-097-020500-
...EASTERN AND SOUTHERN MISSOURI...

CITY           SKY/WX    TMP DP  RH WIND       PRES   REMARKS
ST. LOUIS INTL CLOUDY    68  41  37 SE14G20   29.84F
SPIRIT OF STL  CLOUDY    67  46  47 S7G16     29.82F
COLUMBIA       PTCLDY    58  55  90 SE10      29.77F
JEFFERSON CITY PTCLDY    57  54  89 E9        29.77F
MEXICO         CLOUDY   N/A N/A N/A SE10      29.79F
HANNIBAL       CLOUDY    63  50  63 S12G20    29.79F
ROLLA          PTCLDY    61  56  83 S20       29.81F
LEBANON        CLEAR     63  59  88 S16       29.82F
OSAGE BEACH    CLEAR     61  55  82 S14G20    29.79F
SPRINGFIELD    FAIR      62  58  86 S18       29.81F
BRANSON        PTCLDY    59  57  94 CALM      29.87S
NEVADA         CLEAR     63  57  82 S15       29.76R
JOPLIN         CLEAR     66  56  70 S14       29.78S
WEST PLAINS    CLOUDY    61  55  81 SW10      29.90F

$$

IAZ060-094-KSZ022-034>040-054-083-096-NEZ052-066-093-020500-
...KANSAS...SOUTHEAST NEBRASKA AND IOWA...

CITY           SKY/WX    TMP DP  RH WIND       PRES   REMARKS
TOPEKA         CLEAR     63  58  83 SE12      29.65S
MANHATTAN      PTCLDY    71  55  56 S21G28    29.57F
EMPORIA        PTCLDY    67  56  67 S23G31    29.64F
CHANUTE        CLEAR     68  58  70 S18G25    29.72F
WICHITA        CLOUDY    72  59  63 S20G29    29.61F
OMAHA          TSTM      58  53  84 N20       29.66R
LINCOLN        TSTM      56  53  90 N12       29.71S FOG
FALLS CITY     MOCLDY    63  56  78 SE17G28   29.60S
LAMONI         CLEAR     61  52  72 S15G24    29.66F
DES MOINES     CLOUDY    64  52  64 S16       29.64F

$$




USA.gov is the U.S. government's official web portal to all federal, state and local government web resources and services.